GSAT0209 (GALILEO 12) (41174 NORAD) Tracking and Keplerian Element Data

This shows tracking and keplerian element data for the satellite.

Feedback or suggestion? Click here.




ElementValue
Catalog41174
NameGSAT0209 (GALILEO 12)
Epoch Orbit3579
Epoch Day260.09934151
Epoch Year2021
RAAN148.919
Inclination55.0785
Eccentricity0.0003501
Argument of Perigee328.6858
Mean Anonmoly31.3587
Mean Motion1.70472805
Decay Rate-1.7E-07
L11 41174U 15079A 21260.09934151 -.00000017 00000-0 00000+0 0 9990
L22 41174 55.0785 148.9190 0003501 328.6858 31.3587 1.70472805 35795

Live tracking and technical data element details for GSAT0209 (GALILEO 12) (NORAD 41174). GSAT0209 (GALILEO 12) can be tracked NOW for your location showing map with azimuth and elevation plus other details from your city location.

Track the satellite on the map from your city or location and see movement details for azimuth, elevation, latitude, longitude, range, height, and movement on the map or in text.







IsCatalogInMostPopularTable: catalog: 41174, numindb: 518
Update: records affected: 1



GetName: 41174 GSAT0209 (GALILEO 12)

Hit Count: updated at: Sat, 25 Sep 2021 23:38:51 GMT